Location: Sternwarte ZA, Rosenfeld-Brittheim
(48.2889°N, 8.6789°E)
Time: 11:13:22
(UTC+01:00)

ISS - Pass Details

Date: 22 January 2021
Orbit: 418 x 419 km, 51.6° (Epoch: 20 January)

Event Time Altitude Azimuth Distance (km) Brightness Sun altitude
Rises 18:40:15 0° 236° (WSW) 2,356 1.4 -15.0°
Reaches altitude 10° 18:42:21 10° 233° (SW) 1,495 0.1 -15.3°
Maximum altitude 18:45:40 63° 153° (SSE) 473 -3.7 -15.8°
Enters shadow 18:46:40 39° 89° (E) 639 -3.4 -16.0°
